SCP
0 0 0 0 0 0 0 0 0 0 0 0 0 0 0 0 0 0 0 0 0 0 -0 -0 -0 -0 0 0 0 0 -0 0 0 0 0 -0 -0 -0 0 0 0 -0 0 -0 -0 -0 0
0 0 0 0 0 0 0 0 0 0 0 0 0 0 0 0 0 0 0 0 0 0 -0 -0 -0 -0 0 0 0 0 -0 -0 0 0 0 0 -0 0 0 0 0 0 0 0 -0 0 0
0 0 0 0 0 0 0 0 0 0 0 0 0 0 0 0 0 0 0 0 0 0 0 0 0 0 0 -0 -0 -0 0 0 0 0 0 0 0 0 0 0 0 -0 0 -0 0 0 0
0 0 0 0 0 0 0 0 0 0 0 0 0 0 0 0 0 0 -0 -0 -0 0 0 0 0 0 0 0 0 0 0 0 0 0 0 0 0 0 0 0 -0 0 -0 0 -0 0 0
0 0 0 0 0 0 0 0 0 0 0 0 0 0 0 0 0 0 -0 0 -0 -0 0 0 0 0 0 0 0 0 0 0 0 0 0 0 0 0 0 0 0 -0 0 -0 0 0 0
0 0 0 0 0 0 0 0 0 0 0 0 0 0 0 0 0 0 0 0 0 0 -0 0 0 0 0 0 0 0 0 0 0 0 0 0 0 0 0 0 0 -0 0 0 0 0 0
0 0 0 0 0 0 0 0 0 0 0 0 0 0 0 0 0 0 0 0 0 -0 -0 0 0 0 0 0 0 0 0 0 0 0 0 0 0 0 0 0 0 0 0 0 0 0 0
0 0 0 0 0 0 0 0 0 0 0 0 0 0 0 0 0 0 -0 0 0 -0 0 0 0 0 0 0 0 0 0 0 0 0 0 0 0 0 -0 0 0 0 0 0 0 0 0
0 0 0 0 0 0 0 0 0 0 0 0 0 0 0 0 0 -0 0 0 0 0 0 0 0 0 0 0 0 0 0 0 0 0 0 0 0 0 0 0 0 0 0 0 0 0 0
0 0 0 0 0 0 0 0 0 0 0 0 0 0 0 0 0 0 0 -0 0 0 0 0 0 0 0 0 0 0 -0 0 0 0 0 0 0 0 0 0 0 0 0 0 0 0 0
0 0 0 0 0 0 0 0 0 0 0 0 0 0 0 0 0 0 0 0 0 0 0 0 0 0 0 0 0 0 -0 0 0 0 0 0 0 0 0 0 0 0 0 0 0 0 0
0 0 0 0 0 0 0 0 0 0 0 0 0 0 0 0 0 0 0 0 0 0 0 0 0 0 0 0 0 0 0 0 0 0 0 0 0 0 0 0 0 0 0 0 0 0 0
0 0 0 0 0 0 0 0 0 0 0 0 0 0 0 0 0 0 0 0 0 0 0 0 0 0 0 0 0 0 0 0 0 0 0 0 0 0 0 0 0 0 0 -0 0 0 0
0 0 0 0 0 0 0 0 0 0 0 -0 0 0 0 0 0 0 0 0 0 0 0 0 0 0 -0 0 -0 -0 0 0 0 0 0 0 0 0 0 0 0 0 -0 0 0 0 0
0 0 0 0 0 0 0 0 0 0 0 0 0 0 0 0 0 0 0 0 0 0 0 0 0 0 0 0 -0 -0 -0 -0 -0 0 0 0 0 0 0 0 0 0 0 0 0 0 0
0 0 0 0 0 0 0 0 0 -0 -0 0 0 0 0 0 0 0 0 -0 0 0 0 0 0 0 0 0 -0 -0 0 -0 -0 0 0 0 0 0 0 0 0 0 0 0 0 0 0
0 0 0 0 0 0 0 0 0 -0 -0 0 0 0 0 0 0 0 -0 -0 -0 -0 0 0 0 0 0 0 -0 -0 0 0 0 0 0 0 0 0 0 0 0 0 0 0 0 0 0
0 0 0 0 0 0 0 0 0 0 -0 0 0 0 0 0 0 0 0 -0 -0 -0 0 0 0 0 0 0 0 0 0 0 0 0 0 0 0 0 0 0 0 0 0 0 0 0 0
0 0 0 0 0 0 0 0 0 0 0 0 0 0 0 0 0 0 0 0 -0 -0 0 0 0 0 0 0 0 0 0 0 0 0 0 0 0 0 0 0 0 0 0 0 0 0 0
0 0 0 0 0 0 0 0 0 0 0 0 0 0 0 0 0 0 0 0 0 0 0 0 0 0 0 0 0 0 0 0 0 0 0 0 0 0 0 0 0 0 0 0 0 0 0
0 0 0 0 0 0 0 0 0 0 0 0 0 0 0 0 0 0 0 0 0 0 0 0 0 0 0 0 0 0 0 0 0 0 0 0 0 0 0 0 0 0 0 0 0 0 0
0 0 0 0 0 0 0 0 0 0 0 0 0 0 0 0 0 0 0 0 0 0 0 0 0 0 0 0 0 0 0 0 0 0 0 0 0 0 0 0 0 0 0 0 0 0 0
0 0 0 0 0 0 0 0 0 0 0 0 0 0 0 0 0 0 0 0 0 0 0 0 0 0 0 0 0 0 0 0 0 0 0 0 0 0 0 0 0 0 0 0 0 0 0
0 0 0 0 0 0 0 0 0 0 0 0 0 0 0 0 0 0 0 0 0 0 0 0 0 0 0 0 0 0 0 0 0 0 0 0 0 0 0 0 0 0 0 0 0 0 0
0 0 0 0 0 0 0 0 0 0 0 0 0 0 0 0 0 0 0 0 0 0 0 0 0 0 0 0 0 0 0 0 0 0 0 0 0 0 0 0 0 0 0 0 0 0 0
0 0 0 0 0 0 0 0 0 0 0 0 0 0 0 0 0 0 0 0 0 0 0 0 0 0 0 0 0 0 0 0 0 0 0 0 0 0 0 0 0 0 0 0 0 0 0
0 0 0 0 0 0 0 0 0 0 0 0 0 0 0 0 0 0 0 0 0 0 0 0 0 0 0 0 0 0 0 0 0 0 0 0 0 0 0 0 0 0 0 0 0 0 0
0 0 0 0 0 0 0 0 0 0 0 0 0 0 0 0 0 0 0 0 0 0 0 0 0 0 0 0 0 0 0 0 0 0 0 0 0 0 0 0 0 0 0 0 0 0 0
0 0 0 0 0 0 0 0 0 0 0 0 0 0 0 0 0 0 0 0 0 0 0 0 0 0 0 0 0 0 0 0 0 0 0 0 0 0 0 0 0 0 0 0 0 0 0
Wind_Speed_500mb
13 10 9 10 11 11 11 13 14 15 15 15 15 14 13 14 13 12 13 11 8 9 10 15 24 32 37 22 6 7 12 15 16 16 12 10 11 8 2 6 5 7 7 6 5 32 40
31 22 15 12 7 6 8 11 13 14 14 15 15 15 14 15 13 12 12 10 8 10 11 16 25 33 40 9 11 8 8 13 14 10 6 8 10 13 3 6 4 8 15 3 12 25 26
41 37 31 24 17 10 4 2 7 11 14 15 16 16 15 15 13 11 10 9 9 11 13 18 25 33 31 3 9 7 1 2 2 5 8 18 16 10 17 8 12 6 5 15 13 11 8
40 40 38 35 31 26 18 10 4 4 8 11 14 14 15 13 12 9 8 8 10 13 14 19 25 31 14 7 10 8 7 9 11 14 15 11 12 11 3 15 12 10 12 7 8 5 12
36 36 36 35 34 31 29 25 17 7 5 7 9 10 11 11 10 9 7 8 12 13 15 20 22 17 7 13 16 11 14 18 16 18 15 7 8 8 7 8 11 16 6 8 8 12 7
31 32 32 32 32 33 33 33 30 18 5 3 5 7 9 8 8 8 5 9 12 13 18 18 16 10 3 15 21 11 12 10 16 14 11 14 9 8 9 10 5 2 7 5 7 12 14
27 28 29 31 31 32 33 34 35 31 16 4 1 4 6 7 8 6 6 6 10 7 10 13 18 23 18 24 14 5 11 11 11 15 10 13 12 3 9 8 8 11 5 3 5 7 10
21 24 26 28 29 29 31 32 33 34 29 13 3 2 5 7 7 7 6 5 10 10 13 13 22 28 22 19 12 6 10 4 8 5 4 11 2 6 7 11 14 9 4 6 9 9 11
18 20 23 25 26 28 29 31 32 31 30 23 9 1 4 5 4 1 8 9 5 23 1 11 12 15 6 6 4 9 3 3 4 3 0 8 8 1 12 9 12 2 7 3 7 9 11
14 17 19 21 24 27 30 31 31 30 27 26 17 3 3 3 6 12 10 17 15 3 9 9 6 5 9 4 6 5 8 6 2 5 12 4 7 12 11 7 8 1 4 4 5 7 4
10 13 17 21 24 27 29 31 31 29 26 23 19 8 1 10 13 15 12 15 5 7 6 8 7 3 7 10 4 3 13 11 9 4 9 3 8 10 11 2 6 4 7 6 6 9 7
9 12 17 21 25 27 29 30 31 30 26 22 17 11 5 11 5 12 19 5 10 12 5 11 4 7 7 1 3 4 5 7 5 9 10 3 2 5 7 4 6 4 8 14 8 7 8
9 13 17 21 24 28 30 32 32 31 27 23 16 9 7 4 6 15 7 13 10 8 9 12 3 5 3 5 4 4 1 6 5 9 10 13 9 8 4 8 11 13 15 9 11 11 6
10 13 16 20 25 29 32 33 34 33 29 24 15 8 6 4 3 11 10 11 5 4 9 9 7 2 9 8 4 4 5 1 2 11 7 8 8 3 3 4 10 7 11 10 2 2 9
12 13 16 20 24 29 33 35 35 34 32 24 15 7 7 7 2 7 7 8 9 7 7 15 12 6 2 4 3 4 7 6 11 12 12 8 5 6 8 3 7 4 9 7 12 5 4
15 15 17 20 24 28 32 36 36 35 32 25 16 5 7 13 9 4 11 7 6 7 11 8 4 1 7 3 4 10 9 3 5 9 2 13 5 4 4 3 20 6 10 7 7 2 6
18 17 18 19 22 26 30 34 35 34 31 23 14 2 4 20 21 8 8 10 9 11 13 7 6 7 5 3 2 4 16 2 2 5 12 8 9 8 2 8 2 5 4 13 9 8 9
21 19 19 19 20 23 26 30 32 32 28 18 7 5 8 27 10 5 8 10 4 7 9 12 4 4 3 3 5 3 8 2 13 4 8 2 10 5 2 4 6 3 6 8 10 9 2
23 22 20 20 20 21 23 25 28 29 29 24 14 3 11 20 8 0 3 3 5 5 7 7 5 2 6 5 4 1 4 3 7 7 11 10 6 6 14 12 9 10 6 9 10 6 8
25 23 22 20 20 21 20 21 23 24 25 22 9 4 5 7 8 13 6 2 7 10 9 9 5 6 7 11 10 3 5 12 8 12 13 10 7 11 13 10 5 4 3 5 9 6 6
30 26 25 21 19 19 20 19 18 20 20 15 10 4 3 0 6 7 6 4 3 7 5 7 7 1 5 3 5 3 4 7 11 6 7 8 8 5 4 3 4 2 4 3 9 10 9
34 30 28 25 22 19 18 18 17 16 16 9 5 5 4 4 3 7 4 3 4 6 5 6 6 5 6 11 12 11 8 3 3 9 7 8 4 3 3 3 4 2 4 8 6 0 9
36 33 31 28 25 21 19 19 16 14 12 4 3 3 5 7 4 6 6 3 5 2 6 5 4 9 8 9 9 4 9 14 6 8 4 6 10 6 5 4 5 8 7 5 6 7 6
45 36 35 32 29 25 23 20 19 14 10 6 3 1 1 5 3 3 2 2 4 5 5 10 3 6 5 19 29 30 37 32 29 22 9 9 8 5 3 6 2 10 5 8 8 8 6
50 41 37 36 34 30 27 22 21 17 13 9 9 4 3 1 1 3 6 4 10 11 5 5 6 3 9 10 8 9 10 9 11 11 11 8 9 6 7 5 9 8 7 10 9 12 3
56 49 41 40 37 34 30 26 22 19 18 13 12 12 6 5 7 6 4 2 1 5 11 2 7 2 2 9 7 7 8 8 4 5 9 11 11 8 6 8 12 15 4 9 9 10 4
63 43 42 42 39 36 32 28 24 22 20 15 13 17 10 6 6 4 4 3 2 1 2 7 10 4 7 5 5 6 7 7 7 8 5 5 5 7 4 7 13 12 11 13 8 13 7
57 45 42 42 41 37 32 29 24 22 20 16 19 21 18 7 5 6 4 3 3 2 5 2 5 4 7 7 6 6 5 7 5 4 6 9 9 6 5 3 12 13 10 11 10 12 7
39 40 40 39 38 37 32 28 24 22 19 17 22 21 17 15 10 11 14 7 4 3 5 4 4 3 4 8 1 6 3 3 8 5 2 3 11 7 15 11 9 15 5 9 6 7 8
Wind_Direction_500mb
95 121 147 176 201 210 215 218 222 226 229 229 236 240 244 253 256 260 262 263 259 261 277 317 324 331 340 324 358 32 153 180 186 172 155 145 77 52 29 242 257 214 264 164 207 192 186
76 87 101 115 141 184 217 232 232 232 229 236 239 241 246 256 254 254 257 258 250 249 285 316 324 328 332 302 32 59 105 146 152 158 141 73 5 336 227 231 207 291 292 75 118 197 166
75 78 81 82 82 79 82 253 245 240 237 238 241 246 247 251 251 245 255 254 244 252 288 314 323 325 318 307 9 353 39 139 260 307 333 357 337 332 319 316 339 288 347 22 15 147 136
74 75 74 74 71 66 59 44 344 265 249 240 241 243 246 245 245 248 258 248 236 256 291 311 320 320 269 337 336 340 329 354 325 337 344 7 353 347 346 324 358 46 53 61 315 55 159
73 71 71 68 66 61 54 46 34 7 284 254 244 237 240 237 242 251 250 236 237 268 295 307 314 318 284 345 12 5 1 354 18 43 62 37 37 40 18 46 8 13 50 19 333 21 141
73 70 68 63 58 54 47 42 38 33 9 275 247 236 231 229 238 243 231 218 250 277 287 299 297 311 353 337 357 334 5 20 27 38 49 29 39 62 28 60 185 222 67 20 52 346 45
70 68 62 58 51 47 43 38 35 35 36 37 222 221 222 219 219 210 203 207 284 279 292 260 287 284 315 329 335 80 353 352 10 44 42 15 51 332 228 198 116 96 83 90 310 0 77
66 63 60 53 48 42 40 37 34 32 32 35 26 201 213 214 207 211 191 81 77 35 315 279 261 271 303 329 331 324 350 72 61 46 14 15 284 279 135 105 97 66 41 343 298 11 88
56 53 50 47 40 37 34 33 32 29 28 27 23 348 200 200 212 182 103 64 329 317 337 292 252 274 299 345 298 287 144 112 96 328 335 156 240 97 113 90 90 74 135 226 224 19 46
43 39 39 35 30 30 26 24 23 25 23 21 19 32 187 162 95 119 103 348 306 260 66 286 242 269 224 184 278 293 197 161 70 222 141 206 317 121 105 86 105 15 262 268 267 70 184
28 22 22 20 17 18 18 14 13 16 16 15 9 18 170 132 107 88 354 326 137 134 96 277 231 233 205 186 321 42 173 161 185 125 94 302 54 68 75 319 158 199 45 32 60 93 87
360 4 5 7 3 5 6 4 2 4 7 5 4 12 91 164 117 27 355 122 131 44 253 325 237 174 121 154 276 107 127 127 107 77 32 56 69 66 136 76 52 123 83 43 51 67 41
335 346 353 353 353 354 354 353 354 352 356 358 356 7 123 194 110 4 35 141 43 115 338 331 344 117 124 197 238 173 104 37 141 81 22 8 351 327 129 75 19 52 53 3 11 13 232
313 328 338 342 345 345 344 346 346 344 346 352 354 17 165 201 345 7 128 55 84 277 263 304 354 65 161 181 246 88 80 55 340 86 96 123 339 28 2 161 156 55 115 138 216 263 274
293 309 322 330 335 338 337 339 341 341 340 346 351 15 118 179 167 12 146 70 216 219 302 323 334 101 58 56 172 117 159 197 219 178 128 136 260 320 43 91 128 149 58 160 104 14 39
279 293 309 321 327 331 332 334 337 337 336 339 344 2 146 162 159 22 78 203 245 228 332 350 335 214 148 109 167 145 173 224 241 194 133 197 100 63 312 77 42 104 147 57 18 138 282
270 283 296 309 317 324 328 331 335 336 335 336 339 123 91 164 151 80 133 221 266 294 340 336 316 357 76 78 89 180 202 308 23 102 84 123 102 283 17 21 195 21 32 51 112 122 172
262 272 285 298 309 318 326 331 336 339 341 334 348 61 141 159 76 79 146 195 316 313 320 264 226 250 105 110 48 144 188 300 344 169 100 93 123 109 205 315 268 100 95 111 107 275 126
253 263 273 288 299 310 321 331 340 348 354 1 351 17 172 172 121 335 254 270 275 301 278 323 282 286 52 55 89 194 126 12 20 86 151 180 38 58 354 354 357 64 56 106 105 86 208
245 256 269 278 292 302 315 327 338 350 356 359 0 25 79 150 98 129 113 355 292 287 258 265 275 3 65 41 10 76 51 6 40 86 99 105 102 145 186 201 175 114 12 102 125 125 206
246 252 261 273 282 292 305 319 332 343 354 0 10 40 55 344 20 97 138 147 249 297 258 346 29 62 151 79 37 21 46 16 39 50 49 93 110 135 161 126 129 200 319 10 210 217 177
244 250 256 264 274 285 294 307 324 335 348 356 22 27 37 56 16 118 91 144 193 271 219 314 118 239 155 161 185 196 137 209 212 27 63 7 143 114 125 57 9 269 324 291 228 301 261
246 246 252 257 266 276 284 296 311 327 344 349 352 5 357 0 42 93 201 226 226 286 249 241 226 131 167 197 118 89 166 116 99 136 101 77 129 95 238 334 34 349 227 244 270 226 213
255 248 249 254 260 270 274 284 297 311 314 305 275 285 345 282 60 158 358 265 277 288 266 317 132 129 131 133 106 84 80 81 67 44 73 119 95 76 168 22 194 242 247 232 238 269 251
257 252 248 251 255 260 267 273 281 285 281 270 246 211 201 217 235 313 333 312 309 320 264 297 10 343 135 156 65 47 356 23 29 40 26 73 112 91 138 189 287 291 208 182 175 276 195
255 253 246 245 248 254 259 262 267 267 263 256 236 207 190 147 246 257 269 351 306 334 346 21 38 53 142 77 69 131 188 198 269 356 92 68 69 115 139 169 211 239 184 150 110 298 253
252 249 244 241 241 244 249 253 256 255 251 243 215 196 193 236 204 198 219 188 172 48 215 317 340 37 36 80 100 150 209 176 171 182 208 37 28 159 134 224 289 245 174 143 90 239 184
253 245 238 237 237 238 239 242 244 243 240 226 207 198 201 236 233 211 192 199 169 54 147 350 62 348 44 73 123 201 145 209 111 200 185 183 157 206 101 145 273 180 120 167 209 175 166
232 229 230 231 230 231 229 231 232 231 228 209 201 202 209 222 251 230 212 211 170 102 346 12 126 115 132 89 119 111 128 95 156 221 74 233 183 190 174 217 284 226 290 200 149 153 169
Wind_Speed_850mb
13 10 9 10 11 11 11 13 14 15 15 15 15 14 13 14 13 12 13 11 8 9 10 15 24 32 37 22 6 7 12 15 16 16 12 10 11 8 2 6 5 7 7 6 5 32 40
31 22 15 12 7 6 8 11 13 14 14 15 15 15 14 15 13 12 12 10 8 10 11 16 25 33 40 9 11 8 8 13 14 10 6 8 10 13 3 6 4 8 15 3 12 25 26
41 37 31 24 17 10 4 2 7 11 14 15 16 16 15 15 13 11 10 9 9 11 13 18 25 33 31 3 9 7 1 2 2 5 8 18 16 10 17 8 12 6 5 15 13 11 8
40 40 38 35 31 26 18 10 4 4 8 11 14 14 15 13 12 9 8 8 10 13 14 19 25 31 14 7 10 8 7 9 11 14 15 11 12 11 3 15 12 10 12 7 8 5 12
36 36 36 35 34 31 29 25 17 7 5 7 9 10 11 11 10 9 7 8 12 13 15 20 22 17 7 13 16 11 14 18 16 18 15 7 8 8 7 8 11 16 6 8 8 12 7
31 32 32 32 32 33 33 33 30 18 5 3 5 7 9 8 8 8 5 9 12 13 18 18 16 10 3 15 21 11 12 10 16 14 11 14 9 8 9 10 5 2 7 5 7 12 14
27 28 29 31 31 32 33 34 35 31 16 4 1 4 6 7 8 6 6 6 10 7 10 13 18 23 18 24 14 5 11 11 11 15 10 13 12 3 9 8 8 11 5 3 5 7 10
21 24 26 28 29 29 31 32 33 34 29 13 3 2 5 7 7 7 6 5 10 10 13 13 22 28 22 19 12 6 10 4 8 5 4 11 2 6 7 11 14 9 4 6 9 9 11
18 20 23 25 26 28 29 31 32 31 30 23 9 1 4 5 4 1 8 9 5 23 1 11 12 15 6 6 4 9 3 3 4 3 0 8 8 1 12 9 12 2 7 3 7 9 11
14 17 19 21 24 27 30 31 31 30 27 26 17 3 3 3 6 12 10 17 15 3 9 9 6 5 9 4 6 5 8 6 2 5 12 4 7 12 11 7 8 1 4 4 5 7 4
10 13 17 21 24 27 29 31 31 29 26 23 19 8 1 10 13 15 12 15 5 7 6 8 7 3 7 10 4 3 13 11 9 4 9 3 8 10 11 2 6 4 7 6 6 9 7
9 12 17 21 25 27 29 30 31 30 26 22 17 11 5 11 5 12 19 5 10 12 5 11 4 7 7 1 3 4 5 7 5 9 10 3 2 5 7 4 6 4 8 14 8 7 8
9 13 17 21 24 28 30 32 32 31 27 23 16 9 7 4 6 15 7 13 10 8 9 12 3 5 3 5 4 4 1 6 5 9 10 13 9 8 4 8 11 13 15 9 11 11 6
10 13 16 20 25 29 32 33 34 33 29 24 15 8 6 4 3 11 10 11 5 4 9 9 7 2 9 8 4 4 5 1 2 11 7 8 8 3 3 4 10 7 11 10 2 2 9
12 13 16 20 24 29 33 35 35 34 32 24 15 7 7 7 2 7 7 8 9 7 7 15 12 6 2 4 3 4 7 6 11 12 12 8 5 6 8 3 7 4 9 7 12 5 4
15 15 17 20 24 28 32 36 36 35 32 25 16 5 7 13 9 4 11 7 6 7 11 8 4 1 7 3 4 10 9 3 5 9 2 13 5 4 4 3 20 6 10 7 7 2 6
18 17 18 19 22 26 30 34 35 34 31 23 14 2 4 20 21 8 8 10 9 11 13 7 6 7 5 3 2 4 16 2 2 5 12 8 9 8 2 8 2 5 4 13 9 8 9
21 19 19 19 20 23 26 30 32 32 28 18 7 5 8 27 10 5 8 10 4 7 9 12 4 4 3 3 5 3 8 2 13 4 8 2 10 5 2 4 6 3 6 8 10 9 2
23 22 20 20 20 21 23 25 28 29 29 24 14 3 11 20 8 0 3 3 5 5 7 7 5 2 6 5 4 1 4 3 7 7 11 10 6 6 14 12 9 10 6 9 10 6 8
25 23 22 20 20 21 20 21 23 24 25 22 9 4 5 7 8 13 6 2 7 10 9 9 5 6 7 11 10 3 5 12 8 12 13 10 7 11 13 10 5 4 3 5 9 6 6
30 26 25 21 19 19 20 19 18 20 20 15 10 4 3 0 6 7 6 4 3 7 5 7 7 1 5 3 5 3 4 7 11 6 7 8 8 5 4 3 4 2 4 3 9 10 9
34 30 28 25 22 19 18 18 17 16 16 9 5 5 4 4 3 7 4 3 4 6 5 6 6 5 6 11 12 11 8 3 3 9 7 8 4 3 3 3 4 2 4 8 6 0 9
36 33 31 28 25 21 19 19 16 14 12 4 3 3 5 7 4 6 6 3 5 2 6 5 4 9 8 9 9 4 9 14 6 8 4 6 10 6 5 4 5 8 7 5 6 7 6
45 36 35 32 29 25 23 20 19 14 10 6 3 1 1 5 3 3 2 2 4 5 5 10 3 6 5 19 29 30 37 32 29 22 9 9 8 5 3 6 2 10 5 8 8 8 6
50 41 37 36 34 30 27 22 21 17 13 9 9 4 3 1 1 3 6 4 10 11 5 5 6 3 9 10 8 9 10 9 11 11 11 8 9 6 7 5 9 8 7 10 9 12 3
56 49 41 40 37 34 30 26 22 19 18 13 12 12 6 5 7 6 4 2 1 5 11 2 7 2 2 9 7 7 8 8 4 5 9 11 11 8 6 8 12 15 4 9 9 10 4
63 43 42 42 39 36 32 28 24 22 20 15 13 17 10 6 6 4 4 3 2 1 2 7 10 4 7 5 5 6 7 7 7 8 5 5 5 7 4 7 13 12 11 13 8 13 7
57 45 42 42 41 37 32 29 24 22 20 16 19 21 18 7 5 6 4 3 3 2 5 2 5 4 7 7 6 6 5 7 5 4 6 9 9 6 5 3 12 13 10 11 10 12 7
39 40 40 39 38 37 32 28 24 22 19 17 22 21 17 15 10 11 14 7 4 3 5 4 4 3 4 8 1 6 3 3 8 5 2 3 11 7 15 11 9 15 5 9 6 7 8
Wind_Direction_850mb
95 121 147 176 201 210 215 218 222 226 229 229 236 240 244 253 256 260 262 263 259 261 277 317 324 331 340 324 358 32 153 180 186 172 155 145 77 52 29 242 257 214 264 164 207 192 186
76 87 101 115 141 184 217 232 232 232 229 236 239 241 246 256 254 254 257 258 250 249 285 316 324 328 332 302 32 59 105 146 152 158 141 73 5 336 227 231 207 291 292 75 118 197 166
75 78 81 82 82 79 82 253 245 240 237 238 241 246 247 251 251 245 255 254 244 252 288 314 323 325 318 307 9 353 39 139 260 307 333 357 337 332 319 316 339 288 347 22 15 147 136
74 75 74 74 71 66 59 44 344 265 249 240 241 243 246 245 245 248 258 248 236 256 291 311 320 320 269 337 336 340 329 354 325 337 344 7 353 347 346 324 358 46 53 61 315 55 159
73 71 71 68 66 61 54 46 34 7 284 254 244 237 240 237 242 251 250 236 237 268 295 307 314 318 284 345 12 5 1 354 18 43 62 37 37 40 18 46 8 13 50 19 333 21 141
73 70 68 63 58 54 47 42 38 33 9 275 247 236 231 229 238 243 231 218 250 277 287 299 297 311 353 337 357 334 5 20 27 38 49 29 39 62 28 60 185 222 67 20 52 346 45
70 68 62 58 51 47 43 38 35 35 36 37 222 221 222 219 219 210 203 207 284 279 292 260 287 284 315 329 335 80 353 352 10 44 42 15 51 332 228 198 116 96 83 90 310 0 77
66 63 60 53 48 42 40 37 34 32 32 35 26 201 213 214 207 211 191 81 77 35 315 279 261 271 303 329 331 324 350 72 61 46 14 15 284 279 135 105 97 66 41 343 298 11 88
56 53 50 47 40 37 34 33 32 29 28 27 23 348 200 200 212 182 103 64 329 317 337 292 252 274 299 345 298 287 144 112 96 328 335 156 240 97 113 90 90 74 135 226 224 19 46
43 39 39 35 30 30 26 24 23 25 23 21 19 32 187 162 95 119 103 348 306 260 66 286 242 269 224 184 278 293 197 161 70 222 141 206 317 121 105 86 105 15 262 268 267 70 184
28 22 22 20 17 18 18 14 13 16 16 15 9 18 170 132 107 88 354 326 137 134 96 277 231 233 205 186 321 42 173 161 185 125 94 302 54 68 75 319 158 199 45 32 60 93 87
360 4 5 7 3 5 6 4 2 4 7 5 4 12 91 164 117 27 355 122 131 44 253 325 237 174 121 154 276 107 127 127 107 77 32 56 69 66 136 76 52 123 83 43 51 67 41
335 346 353 353 353 354 354 353 354 352 356 358 356 7 123 194 110 4 35 141 43 115 338 331 344 117 124 197 238 173 104 37 141 81 22 8 351 327 129 75 19 52 53 3 11 13 232
313 328 338 342 345 345 344 346 346 344 346 352 354 17 165 201 345 7 128 55 84 277 263 304 354 65 161 181 246 88 80 55 340 86 96 123 339 28 2 161 156 55 115 138 216 263 274
293 309 322 330 335 338 337 339 341 341 340 346 351 15 118 179 167 12 146 70 216 219 302 323 334 101 58 56 172 117 159 197 219 178 128 136 260 320 43 91 128 149 58 160 104 14 39
279 293 309 321 327 331 332 334 337 337 336 339 344 2 146 162 159 22 78 203 245 228 332 350 335 214 148 109 167 145 173 224 241 194 133 197 100 63 312 77 42 104 147 57 18 138 282
270 283 296 309 317 324 328 331 335 336 335 336 339 123 91 164 151 80 133 221 266 294 340 336 316 357 76 78 89 180 202 308 23 102 84 123 102 283 17 21 195 21 32 51 112 122 172
262 272 285 298 309 318 326 331 336 339 341 334 348 61 141 159 76 79 146 195 316 313 320 264 226 250 105 110 48 144 188 300 344 169 100 93 123 109 205 315 268 100 95 111 107 275 126
253 263 273 288 299 310 321 331 340 348 354 1 351 17 172 172 121 335 254 270 275 301 278 323 282 286 52 55 89 194 126 12 20 86 151 180 38 58 354 354 357 64 56 106 105 86 208
245 256 269 278 292 302 315 327 338 350 356 359 0 25 79 150 98 129 113 355 292 287 258 265 275 3 65 41 10 76 51 6 40 86 99 105 102 145 186 201 175 114 12 102 125 125 206
246 252 261 273 282 292 305 319 332 343 354 0 10 40 55 344 20 97 138 147 249 297 258 346 29 62 151 79 37 21 46 16 39 50 49 93 110 135 161 126 129 200 319 10 210 217 177
244 250 256 264 274 285 294 307 324 335 348 356 22 27 37 56 16 118 91 144 193 271 219 314 118 239 155 161 185 196 137 209 212 27 63 7 143 114 125 57 9 269 324 291 228 301 261
246 246 252 257 266 276 284 296 311 327 344 349 352 5 357 0 42 93 201 226 226 286 249 241 226 131 167 197 118 89 166 116 99 136 101 77 129 95 238 334 34 349 227 244 270 226 213
255 248 249 254 260 270 274 284 297 311 314 305 275 285 345 282 60 158 358 265 277 288 266 317 132 129 131 133 106 84 80 81 67 44 73 119 95 76 168 22 194 242 247 232 238 269 251
257 252 248 251 255 260 267 273 281 285 281 270 246 211 201 217 235 313 333 312 309 320 264 297 10 343 135 156 65 47 356 23 29 40 26 73 112 91 138 189 287 291 208 182 175 276 195
255 253 246 245 248 254 259 262 267 267 263 256 236 207 190 147 246 257 269 351 306 334 346 21 38 53 142 77 69 131 188 198 269 356 92 68 69 115 139 169 211 239 184 150 110 298 253
252 249 244 241 241 244 249 253 256 255 251 243 215 196 193 236 204 198 219 188 172 48 215 317 340 37 36 80 100 150 209 176 171 182 208 37 28 159 134 224 289 245 174 143 90 239 184
253 245 238 237 237 238 239 242 244 243 240 226 207 198 201 236 233 211 192 199 169 54 147 350 62 348 44 73 123 201 145 209 111 200 185 183 157 206 101 145 273 180 120 167 209 175 166
232 229 230 231 230 231 229 231 232 231 228 209 201 202 209 222 251 230 212 211 170 102 346 12 126 115 132 89 119 111 128 95 156 221 74 233 183 190 174 217 284 226 290 200 149 153 169